OK,35,55,714,35,2014-10-01T01:40:00,0,28072041,185104
OK,35,55,714,35,2014-10-01T01:45:00,0,28072484,185104
OK,35,55,714,35,2014-10-01T01:50:00,0,28072933,185104
OK,35,55,714,35,2014-10-01T01:55:00,0,28073380,185104
OK,35,55,714,35,2014-10-01T02:05:00,0,28074146,185104
OK,73,26,714,73,2014-10-01T02:10:00,1,28074595,185104
OK,73,26,714,73,2014-10-01T02:15:00,1,28075035,185104
OK,73,26,714,73,2014-10-01T02:20:00,0,28075484,185104
OK,73,26,714,73,2014-10-01T02:25:00,0,28075933,185104
OK,73,26,714,73,2014-10-01T02:30:00,0,28076316,185104
OK,73,26,714,73,2014-10-01T02:35:00,0,28076765,185104
OK,73,26,714,73,2014-10-01T02:40:00,0,28077214,185104
OK,54,36,714,54,2014-10-01T02:45:00,0,28077663,185104
OK,54,36,714,54,2014-10-01T02:50:00,0,28078066,185104
OK,54,36,714,54,2014-10-01T02:55:00,0,28078515,185104
OK,129,15,714,129,2014-10-01T03:00:00,1,28078960,185104
OK,129,15,714,129,2014-10-01T03:05:00,1,28079408,185104
OK,129,15,714,129,2014-10-01T03:10:00,0,28079851,185104
OK,36,54,714,36,2014-10-01T03:20:00,1,28080634,185104
OK,36,54,714,36,2014-10-01T03:25:00,1,28081083,185104
OK,36,54,714,36,2014-10-01T03:30:00,0,28081532,185104
OK,36,54,714,36,2014-10-01T03:35:00,0,28081979,185104
OK,36,54,714,36,2014-10-01T03:40:00,0,28082428,185104
OK,36,54,714,36,2014-10-01T03:45:00,0,28082861,185104
OK,52,37,714,52,2014-10-01T03:50:00,5,28083293,185104
OK,52,37,714,52,2014-10-01T03:55:00,5,28083742,185104
OK,120,16,714,120,2014-10-01T04:00:00,0,28084191,185104
OK,83,23,714,83,2014-10-01T04:05:00,3,28084632,185104
OK,82,23,714,82,2014-10-01T04:10:00,4,28085057,185104
OK,62,31,714,62,2014-10-01T04:15:00,2,28085506,185104
OK,47,41,714,47,2014-10-01T04:20:00,3,28085951,185104
OK,40,48,714,40,2014-10-01T04:25:00,1,28086400,185104
OK,89,21,714,89,2014-10-01T04:30:00,5,28086842,185104
OK,88,22,714,88,2014-10-01T04:35:00,6,28087291,185104
OK,47,41,714,47,2014-10-01T04:40:00,1,28087736,185104
OK,99,19,714,99,2014-10-01T04:45:00,4,28088185,185104
OK,103,18,714,103,2014-10-01T04:50:00,10,28088609,185104
OK,108,18,714,108,2014-10-01T04:55:00,6,28089058,185104
OK,112,17,714,112,2014-10-01T05:00:00,6,28089488,185104
OK,111,17,714,111,2014-10-01T05:05:00,12,28089937,185104
OK,87,22,714,87,2014-10-01T05:10:00,11,28090386,185104
OK,87,22,714,87,2014-10-01T05:15:00,11,28090730,185104
OK,84,23,714,84,2014-10-01T05:20:00,6,28091179,185104
OK,102,19,714,102,2014-10-01T05:25:00,4,28091628,185104
OK,104,18,714,104,2014-10-01T05:30:00,6,28092045,185104
OK,103,18,714,103,2014-10-01T05:35:00,6,28092494,185104
OK,99,19,714,99,2014-10-01T05:40:00,11,28092938,185104
OK,127,15,714,127,2014-10-01T05:45:00,16,28093379,185104
OK,174,11,714,174,2014-10-01T05:50:00,11,28093810,185104
OK,168,11,714,168,2014-10-01T05:55:00,8,28094259,185104
OK,174,11,714,174,2014-10-01T06:00:00,7,28094670,185104
OK,144,13,714,144,2014-10-01T06:05:00,2,28095115,185104
OK,124,15,714,124,2014-10-01T06:10:00,2,28095562,185104
OK,125,15,714,125,2014-10-01T06:15:00,4,28096011,185104
OK,197,9,714,197,2014-10-01T06:20:00,11,28096424,185104
OK,198,9,714,198,2014-10-01T06:25:00,9,28096873,185104
OK,167,11,714,167,2014-10-01T06:30:00,4,28097307,185104
OK,199,9,714,199,2014-10-01T06:35:00,5,28097756,185104
OK,164,11,714,164,2014-10-01T06:40:00,5,28098205,185104
OK,170,11,714,170,2014-10-01T06:45:00,4,28098642,185104
OK,70,27,714,70,2014-10-01T06:50:00,3,28099086,185104
OK,116,16,714,116,2014-10-01T07:00:00,7,28099877,185104
OK,147,13,714,147,2014-10-01T07:10:00,3,28100633,185104
OK,82,23,714,82,2014-10-01T07:20:00,2,28101453,185104
OK,88,22,714,88,2014-10-01T07:25:00,4,28101902,185104
OK,132,14,714,132,2014-10-01T07:30:00,4,28102338,185104
OK,120,16,714,120,2014-10-01T07:35:00,5,28102787,185104
OK,113,17,714,113,2014-10-01T07:40:00,5,28103214,185104
OK,63,30,714,63,2014-10-01T07:45:00,3,28103661,185104
OK,79,24,714,79,2014-10-01T07:50:00,10,28104106,185104
OK,70,27,714,70,2014-10-01T07:55:00,11,28104551,185104
OK,69,28,714,69,2014-10-01T08:00:00,4,28104992,185104
OK,78,24,714,78,2014-10-01T08:05:00,6,28105437,185104
OK,73,26,714,73,2014-10-01T08:10:00,9,28105877,185104
OK,73,26,714,73,2014-10-01T08:15:00,7,28106326,185104
OK,130,14,714,130,2014-10-01T08:20:00,5,28106763,185104
OK,130,14,714,130,2014-10-01T08:25:00,5,28107169,185104
OK,78,24,714,78,2014-10-01T08:30:00,11,28107601,185104
OK,78,24,714,78,2014-10-01T08:35:00,7,28108050,185104
OK,82,23,714,82,2014-10-01T08:40:00,5,28108489,185104
OK,89,21,714,89,2014-10-01T08:45:00,7,28108938,185104
OK,91,21,714,91,2014-10-01T08:50:00,3,28109366,185104
OK,161,12,714,161,2014-10-01T09:00:00,11,28110158,185104
OK,144,13,714,144,2014-10-01T09:05:00,12,28110607,185104
OK,85,22,714,85,2014-10-01T09:10:00,8,28111030,185104
OK,107,18,714,107,2014-10-01T09:15:00,5,28111479,185104
OK,119,16,714,119,2014-10-01T09:20:00,2,28111908,185104
OK,138,14,714,138,2014-10-01T09:30:00,6,28112698,185104
OK,93,20,714,93,2014-10-01T09:35:00,5,28113147,185104
OK,91,21,714,91,2014-10-01T09:40:00,4,28113571,185104
OK,88,22,714,88,2014-10-01T09:45:00,2,28114020,185104
OK,67,29,714,67,2014-10-01T09:50:00,6,28114452,185104
OK,68,28,714,68,2014-10-01T10:00:00,5,28115255,185104
OK,84,23,714,84,2014-10-01T10:05:00,8,28115704,185104
OK,127,15,714,127,2014-10-01T10:10:00,5,28116116,185104
OK,110,17,714,110,2014-10-01T10:15:00,7,28116565,185104
OK,106,18,714,106,2014-10-01T10:20:00,12,28116973,185104
OK,103,18,714,103,2014-10-01T10:25:00,11,28117422,185104
OK,117,16,714,117,2014-10-01T10:30:00,9,28117847,185104
OK,106,18,714,106,2014-10-01T10:35:00,9,28118296,185104
OK,64,30,714,64,2014-10-01T10:40:00,4,28118741,185104
OK,100,19,714,100,2014-10-01T10:45:00,5,28119188,185104
OK,101,19,714,101,2014-10-01T10:50:00,9,28119632,185104
OK,123,15,714,123,2014-10-01T10:55:00,6,28120080,185104
OK,103,18,714,103,2014-10-01T11:00:00,6,28120528,185104
OK,115,16,714,115,2014-10-01T11:05:00,8,28120977,185104
OK,115,16,714,115,2014-10-01T11:10:00,10,28121360,185104
OK,110,17,714,110,2014-10-01T11:15:00,6,28121809,185104
OK,72,27,714,72,2014-10-01T11:20:00,2,28122247,185104
OK,80,24,714,80,2014-10-01T11:25:00,5,28122696,185104
OK,72,27,714,72,2014-10-01T11:30:00,6,28123137,185104
OK,73,26,714,73,2014-10-01T11:35:00,5,28123586,185104
OK,131,14,714,131,2014-10-01T11:40:00,3,28124018,185104
OK,129,15,714,129,2014-10-01T11:45:00,7,28124467,185104
OK,114,17,714,114,2014-10-01T11:50:00,6,28124869,185104
OK,114,17,714,114,2014-10-01T11:55:00,5,28125318,185104
OK,111,17,714,111,2014-10-01T12:00:00,8,28125747,185104
OK,84,23,714,84,2014-10-01T12:10:00,11,28126548,185104
OK,109,17,714,109,2014-10-01T12:15:00,8,28126997,185104
OK,153,12,714,153,2014-10-01T12:20:00,5,28127446,185104
OK,124,15,714,124,2014-10-01T12:25:00,2,28127895,185104
OK,115,16,714,115,2014-10-01T12:30:00,5,28128323,185104
OK,115,16,714,115,2014-10-01T12:35:00,9,28128772,185104
OK,112,17,714,112,2014-10-01T12:40:00,7,28129207,185104
OK,72,27,714,72,2014-10-01T12:45:00,1,28129656,185104
OK,82,23,714,82,2014-10-01T12:50:00,6,28130090,185104
OK,82,23,714,82,2014-10-01T12:55:00,6,28130539,185104
OK,52,37,714,52,2014-10-01T13:00:00,4,28130967,185104
OK,52,37,714,52,2014-10-01T13:05:00,4,28131416,185104
OK,131,14,714,131,2014-10-01T13:10:00,4,28131853,185104
OK,131,14,714,131,2014-10-01T13:15:00,8,28132302,185104
OK,158,12,714,158,2014-10-01T13:20:00,6,28132740,185104
OK,177,11,714,177,2014-10-01T13:25:00,8,28133187,185104
OK,149,13,714,149,2014-10-01T13:30:00,9,28133625,185104
OK,159,12,714,159,2014-10-01T13:35:00,6,28134074,185104
OK,207,9,714,207,2014-10-01T13:40:00,2,28134513,185104
OK,139,14,714,139,2014-10-01T13:45:00,5,28134962,185104
OK,199,9,714,199,2014-10-01T13:50:00,6,28135381,185104
OK,165,11,714,165,2014-10-01T13:55:00,4,28135830,185104
OK,81,24,714,81,2014-10-01T14:00:00,2,28136267,185104
OK,63,30,714,63,2014-10-01T14:05:00,4,28136716,185104
OK,84,23,714,84,2014-10-01T14:10:00,4,28137156,185104
OK,146,13,714,146,2014-10-01T14:15:00,4,28137605,185104
OK,158,12,714,158,2014-10-01T14:20:00,5,28138039,185104
OK,194,10,714,194,2014-10-01T14:25:00,6,28138488,185104
OK,161,12,714,161,2014-10-01T14:30:00,10,28138916,185104
OK,144,13,714,144,2014-10-01T14:35:00,10,28139365,185104
OK,103,18,714,103,2014-10-01T14:40:00,6,28139776,185104
OK,114,17,714,114,2014-10-01T14:45:00,5,28140225,185104
OK,118,16,714,118,2014-10-01T14:50:00,7,28140667,185104
OK,129,15,714,129,2014-10-01T14:55:00,7,28141115,185104
OK,98,19,714,98,2014-10-01T15:00:00,7,28141542,185104
OK,75,25,714,75,2014-10-01T15:05:00,1,28141991,185104
OK,61,31,714,61,2014-10-01T15:10:00,5,28142419,185104
OK,49,39,714,49,2014-10-01T15:15:00,6,28142868,185104
OK,118,16,714,118,2014-10-01T15:20:00,7,28143295,185104
OK,124,15,714,124,2014-10-01T15:25:00,2,28143744,185104
OK,74,26,714,74,2014-10-01T15:30:00,4,28144192,185104
OK,80,24,714,80,2014-10-01T15:35:00,5,28144641,185104
OK,57,34,714,57,2014-10-01T15:40:00,9,28145062,185104
OK,97,20,714,97,2014-10-01T15:45:00,9,28145476,185104
OK,113,17,714,113,2014-10-01T15:50:00,4,28145925,185104
OK,140,13,714,140,2014-10-01T15:55:00,1,28146374,185104
OK,120,16,714,120,2014-10-01T16:00:00,4,28146823,185104
OK,169,11,714,169,2014-10-01T16:05:00,1,28147231,185104
OK,55,35,714,55,2014-10-01T16:10:00,2,28147675,185104
OK,74,26,714,74,2014-10-01T16:15:00,4,28148124,185104
OK,86,22,714,86,2014-10-01T16:20:00,4,28148525,185104
OK,86,22,714,86,2014-10-01T16:25:00,2,28148974,185104
OK,39,49,714,39,2014-10-01T16:30:00,1,28149413,185104
OK,110,17,714,110,2014-10-01T16:35:00,1,28149862,185104
OK,54,36,714,54,2014-10-01T16:40:00,4,28150288,185104
OK,98,19,714,98,2014-10-01T16:45:00,2,28150737,185104
OK,92,21,714,92,2014-10-01T16:50:00,2,28151155,185104
OK,42,46,714,42,2014-10-01T16:55:00,3,28151604,185104
OK,109,17,714,109,2014-10-01T17:05:00,3,28152053,185104
OK,114,17,714,114,2014-10-01T17:10:00,0,28152502,185104
OK,63,30,714,63,2014-10-01T17:15:00,6,28152948,185104
OK,91,21,714,91,2014-10-01T17:20:00,7,28153395,185104
OK,112,17,714,112,2014-10-01T17:25:00,5,28153844,185104
OK,112,17,714,112,2014-10-01T17:30:00,3,28154254,185104
OK,67,29,714,67,2014-10-01T17:35:00,2,28154703,185104
OK,80,24,714,80,2014-10-01T17:40:00,3,28155145,185104
OK,89,21,714,89,2014-10-01T17:45:00,0,28155593,185104
OK,73,26,714,73,2014-10-01T17:50:00,4,28156011,185104
OK,73,26,714,73,2014-10-01T17:55:00,6,28156460,185104
OK,77,25,714,77,2014-10-01T18:00:00,2,28156908,185104
OK,109,17,714,109,2014-10-01T18:05:00,0,28157347,185104
OK,54,36,714,54,2014-10-01T18:10:00,3,28157777,185104
OK,98,19,714,98,2014-10-01T18:15:00,6,28158225,185104
OK,110,17,714,110,2014-10-01T18:20:00,5,28158669,185104
OK,86,22,714,86,2014-10-01T18:25:00,2,28159114,185104
OK,50,38,714,50,2014-10-01T18:35:00,0,28159896,185104
OK,91,21,714,91,2014-10-01T18:40:00,2,28160345,185104
OK,70,27,714,70,2014-10-01T18:45:00,1,28160794,185104
OK,73,26,714,73,2014-10-01T18:50:00,3,28161232,185104
OK,107,18,714,107,2014-10-01T18:55:00,2,28161681,185104
OK,43,45,714,43,2014-10-01T19:00:00,1,28162098,185104
OK,108,18,714,108,2014-10-01T19:05:00,3,28162547,185104
OK,88,22,714,88,2014-10-01T19:10:00,2,28162941,185104
OK,123,15,714,123,2014-10-01T19:15:00,4,28163380,185104
OK,172,11,714,172,2014-10-01T19:20:00,2,28163828,185104
OK,172,11,714,172,2014-10-01T19:25:00,0,28164277,185104
OK,172,11,714,172,2014-10-01T19:30:00,0,28164708,185104
OK,127,15,714,127,2014-10-01T19:35:00,1,28165157,185104
OK,127,15,714,127,2014-10-01T19:40:00,1,28165582,185104
OK,60,32,714,60,2014-10-01T19:45:00,3,28166030,185104
OK,99,19,714,99,2014-10-01T19:55:00,1,28166833,185104
OK,99,19,714,99,2014-10-01T20:00:00,0,28167282,185104
OK,99,19,714,99,2014-10-01T20:05:00,0,28167710,185104
OK,99,19,714,99,2014-10-01T20:10:00,0,28168144,185104
OK,99,19,714,99,2014-10-01T20:15:00,0,28168593,185104
OK,80,24,714,80,2014-10-01T20:20:00,2,28169038,185104
OK,80,24,714,80,2014-10-01T20:25:00,0,28169487,185104
OK,60,32,714,60,2014-10-01T20:30:00,3,28169935,185104
OK,60,32,714,60,2014-10-01T20:35:00,3,28170361,185104
OK,31,62,714,31,2014-10-01T20:40:00,1,28170806,185104
OK,31,62,714,31,2014-10-01T20:45:00,1,28171254,185104
OK,31,62,714,31,2014-10-01T20:50:00,0,28171691,185104
OK,31,62,714,31,2014-10-01T20:55:00,0,28172137,185104
OK,31,62,714,31,2014-10-01T21:00:00,0,28172585,185104
OK,31,62,714,31,2014-10-01T21:05:00,0,28173031,185104
OK,31,62,714,31,2014-10-01T21:10:00,0,28173477,185104
OK,31,62,714,31,2014-10-01T21:15:00,0,28173925,185104
OK,31,62,714,31,2014-10-01T21:20:00,0,28174367,185104
OK,31,62,714,31,2014-10-01T21:25:00,0,28174816,185104
OK,98,19,714,98,2014-10-01T21:35:00,1,28175638,185104
OK,98,19,714,98,2014-10-01T21:40:00,0,28176087,185104
OK,98,19,714,98,2014-10-01T21:45:00,0,28176536,185104
OK,98,19,714,98,2014-10-01T21:50:00,0,28176985,185104
OK,116,16,714,116,2014-10-01T21:55:00,1,28177341,185104
OK,116,16,714,116,2014-10-01T22:00:00,0,28177781,185104
OK,116,16,714,116,2014-10-01T22:05:00,0,28178227,185104
OK,81,24,714,81,2014-10-01T22:10:00,1,28178676,185104
OK,81,24,714,81,2014-10-01T22:15:00,1,28179123,185104
OK,81,24,714,81,2014-10-01T22:20:00,0,28179557,185104
OK,81,24,714,81,2014-10-01T22:25:00,0,28180000,185104
OK,81,24,714,81,2014-10-01T22:30:00,0,28180445,185104
OK,81,24,714,81,2014-10-01T22:35:00,0,28180845,185104
OK,81,24,714,81,2014-10-01T22:40:00,0,28181290,185104
OK,81,24,714,81,2014-10-01T22:45:00,0,28181718,185104
OK,81,24,714,81,2014-10-01T22:50:00,0,28182166,185104
OK,118,16,714,118,2014-10-01T22:55:00,4,28182613,185104
OK,119,16,714,119,2014-10-01T23:00:00,3,28183061,185104
OK,119,16,714,119,2014-10-01T23:05:00,0,28183910,185104
OK,119,16,714,119,2014-10-01T23:15:00,0,28184357,185104
OK,119,16,714,119,2014-10-01T23:20:00,0,28184804,185104
OK,119,16,714,119,2014-10-01T23:25:00,0,28185683,185104
OK,119,16,714,119,2014-10-01T23:30:00,0,28186064,185104
OK,57,34,714,57,2014-10-01T23:40:00,1,28186512,185104
OK,57,34,714,57,2014-10-01T23:45:00,0,28187352,185104
OK,57,34,714,57,2014-10-01T23:50:00,0,28187801,185104
OK,57,34,714,57,2014-10-01T23:55:00,0,28188242,185104
OK,57,34,714,57,2014-10-02T00:00:00,0,28188678,185104
OK,57,34,714,57,2014-10-02T00:10:00,0,28189127,185104
OK,57,34,714,57,2014-10-02T00:15:00,0,28189576,185104
OK,57,34,714,57,2014-10-02T00:20:00,0,28189998,185104
OK,57,34,714,57,2014-10-02T00:30:00,0,28190800,185104
OK,57,34,714,57,2014-10-02T00:35:00,0,28191249,185104
OK,57,34,714,57,2014-10-02T00:45:00,0,28192004,185104
OK,57,34,714,57,2014-10-02T00:50:00,0,28192453,185104
OK,57,34,714,57,2014-10-02T00:55:00,0,28192886,185104
OK,57,34,714,57,2014-10-02T01:05:00,0,28193697,185104
OK,57,34,714,57,2014-10-02T01:10:00,0,28194146,185104
OK,57,34,714,57,2014-10-02T01:15:00,0,28194595,185104
OK,57,34,714,57,2014-10-02T01:25:00,0,28195280,185104
OK,57,34,714,57,2014-10-02T01:30:00,0,28195729,185104
OK,57,34,714,57,2014-10-02T01:35:00,0,28196178,185104
OK,57,34,714,57,2014-10-02T01:40:00,0,28196462,185104
OK,51,38,714,51,2014-10-02T01:45:00,1,28196911,185104
OK,51,38,714,51,2014-10-02T01:50:00,0,28197334,185104
OK,51,38,714,51,2014-10-02T01:55:00,0,28197783,185104
OK,51,38,714,51,2014-10-02T02:00:00,0,28198231,185104
OK,51,38,714,51,2014-10-02T02:05:00,0,28198679,185104
OK,51,38,714,51,2014-10-02T02:10:00,0,28199128,185104
OK,51,38,714,51,2014-10-02T02:15:00,0,28199500,185104
OK,51,38,714,51,2014-10-02T02:20:00,0,28199942,185104
OK,51,38,714,51,2014-10-02T02:25:00,0,28200384,185104
OK,51,38,714,51,2014-10-02T02:30:00,0,28200827,185104
OK,51,38,714,51,2014-10-02T02:35:00,0,28201276,185104
OK,51,38,714,51,2014-10-02T02:45:00,0,28201707,185104
OK,51,38,714,51,2014-10-02T02:50:00,0,28202156,185104
OK,51,38,714,51,2014-10-02T02:55:00,0,28202605,185104
OK,51,38,714,51,2014-10-02T03:00:00,0,28203047,185104
OK,51,38,714,51,2014-10-02T03:05:00,0,28203495,185104
OK,51,38,714,51,2014-10-02T03:10:00,0,28203930,185104
OK,70,27,714,70,2014-10-02T03:30:00,0,28204379,185104
OK,70,27,714,70,2014-10-02T03:35:00,0,28204828,185104
OK,70,27,714,70,2014-10-02T03:40:00,0,28205277,185104
OK,68,28,714,68,2014-10-02T03:45:00,0,28205705,185104
OK,68,28,714,68,2014-10-02T03:50:00,0,28206132,185104
OK,68,28,714,68,2014-10-02T03:55:00,0,28206535,185104
OK,120,16,714,120,2014-10-02T04:00:00,3,28206984,185104
OK,35,55,714,35,2014-10-02T04:05:00,1,28207433,185104
OK,35,55,714,35,2014-10-02T04:10:00,0,28207852,185104
OK,35,55,714,35,2014-10-02T04:15:00,0,28208301,185104
OK,74,26,714,74,2014-10-02T04:20:00,1,28208728,185104
OK,74,26,714,74,2014-10-02T04:25:00,0,28209177,185104
OK,135,14,714,135,2014-10-02T04:30:00,5,28209615,185104
OK,136,14,714,136,2014-10-02T04:35:00,3,28210064,185104
OK,65,29,714,65,2014-10-02T04:40:00,3,28210487,185104
OK,101,19,714,101,2014-10-02T04:45:00,0,28210936,185104
OK,101,19,714,101,2014-10-02T04:50:00,0,28211361,185104
OK,122,15,714,122,2014-10-02T05:00:00,1,28212183,185104
OK,67,29,714,67,2014-10-02T05:05:00,7,28212632,185104
OK,67,29,714,67,2014-10-02T05:10:00,3,28213061,185104
OK,66,29,714,66,2014-10-02T05:15:00,4,28213510,185104
OK,81,24,714,81,2014-10-02T05:20:00,1,28213948,185104
OK,134,14,714,134,2014-10-02T05:25:00,6,28214397,185104
OK,154,12,714,154,2014-10-02T05:30:00,3,28214810,185104
OK,154,12,714,154,2014-10-02T05:35:00,0,28215259,185104
OK,93,20,714,93,2014-10-02T05:40:00,8,28215675,185104
OK,128,15,714,128,2014-10-02T05:45:00,2,28216124,185104
OK,164,11,714,164,2014-10-02T05:50:00,0,28216463,185104
OK,143,13,714,143,2014-10-02T05:55:00,4,28216903,185104
OK,86,22,714,86,2014-10-02T06:00:00,4,28217350,185104
OK,94,20,714,94,2014-10-02T06:05:00,5,28217799,185104
OK,83,23,714,83,2014-10-02T06:10:00,0,28218238,185104
OK,132,14,714,132,2014-10-02T06:15:00,10,28218687,185104
OK,131,14,714,131,2014-10-02T06:20:00,9,28219107,185104
OK,93,20,714,93,2014-10-02T06:30:00,6,28219929,185104
OK,93,20,714,93,2014-10-02T06:35:00,6,28220378,185104
OK,202,9,714,202,2014-10-02T06:40:00,7,28220812,185104
OK,179,10,714,179,2014-10-02T06:45:00,3,28221261,185104
OK,142,13,714,142,2014-10-02T07:00:00,8,28221928,185104
OK,104,18,714,104,2014-10-02T07:05:00,8,28222073,185104
OK,98,19,714,98,2014-10-02T07:10:00,8,28222522,185104
OK,89,21,714,89,2014-10-02T07:15:00,3,28222971,185104
OK,89,21,714,89,2014-10-02T07:20:00,0,28223402,185104
OK,85,22,714,85,2014-10-02T07:25:00,6,28223837,185104
OK,80,24,714,80,2014-10-02T07:35:00,7,28224640,185104
OK,86,22,714,86,2014-10-02T07:40:00,3,28225089,185104
OK,99,19,714,99,2014-10-02T07:45:00,0,28225498,185104
OK,95,20,714,95,2014-10-02T07:50:00,10,28225860,185104
OK,107,18,714,107,2014-10-02T07:55:00,4,28226309,185104
OK,99,19,714,99,2014-10-02T08:00:00,1,28226750,185104
OK,79,24,714,79,2014-10-02T08:05:00,5,28227199,185104
OK,72,27,714,72,2014-10-02T08:10:00,2,28227614,185104
OK,126,15,714,126,2014-10-02T08:20:00,1,28228422,185104
OK,126,15,714,126,2014-10-02T08:25:00,3,28228871,185104
OK,114,17,714,114,2014-10-02T08:30:00,2,28229281,185104
OK,118,16,714,118,2014-10-02T08:40:00,6,28230080,185104
OK,118,16,714,118,2014-10-02T08:45:00,0,28230529,185104
OK,112,17,714,112,2014-10-02T08:50:00,7,28230895,185104
OK,39,49,714,39,2014-10-02T08:55:00,1,28231342,185104
OK,88,22,714,88,2014-10-02T09:00:00,7,28231767,185104
OK,54,36,714,54,2014-10-02T09:15:00,1,28232558,185104
OK,54,36,714,54,2014-10-02T09:20:00,0,28233007,185104
OK,84,23,714,84,2014-10-02T09:25:00,2,28233456,185104
OK,84,23,714,84,2014-10-02T09:30:00,0,28233880,185104
OK,115,16,714,115,2014-10-02T09:40:00,0,28234662,185104
OK,80,24,714,80,2014-10-02T09:45:00,4,28235111,185104
OK,80,24,714,80,2014-10-02T09:50:00,0,28235538,185104
OK,76,25,714,76,2014-10-02T09:55:00,5,28235987,185104
OK,180,10,714,180,2014-10-02T10:00:00,1,28236430,185104
OK,180,10,714,180,2014-10-02T10:05:00,0,28236877,185104
OK,127,15,714,127,2014-10-02T10:10:00,2,28237279,185104
OK,106,18,714,106,2014-10-02T10:15:00,9,28237727,185104
OK,89,21,714,89,2014-10-02T10:20:00,12,28238176,185104
OK,105,18,714,105,2014-10-02T10:25:00,9,28238623,185104
OK,90,21,714,90,2014-10-02T10:30:00,6,28239064,185104
OK,67,29,714,67,2014-10-02T10:35:00,3,28239513,185104
OK,92,21,714,92,2014-10-02T10:40:00,4,28239943,185104
OK,122,15,714,122,2014-10-02T10:45:00,4,28240392,185104
OK,129,15,714,129,2014-10-02T10:50:00,2,28240836,185104
OK,86,22,714,86,2014-10-02T10:55:00,4,28241285,185104
OK,60,32,714,60,2014-10-02T11:00:00,2,28241717,185104
OK,60,32,714,60,2014-10-02T11:05:00,0,28242165,185104
OK,104,18,714,104,2014-10-02T11:10:00,8,28242561,185104
OK,119,16,714,119,2014-10-02T11:15:00,0,28243010,185104
OK,41,47,714,41,2014-10-02T11:20:00,3,28243459,185104
OK,40,48,714,40,2014-10-02T11:25:00,1,28243784,185104
OK,40,48,714,40,2014-10-02T11:30:00,0,28244222,185104
OK,120,16,714,120,2014-10-02T11:35:00,7,28244651,185104
OK,100,19,714,100,2014-10-02T11:40:00,2,28245100,185104
OK,100,19,714,100,2014-10-02T11:45:00,0,28245549,185104
OK,87,22,714,87,2014-10-02T11:50:00,6,28245955,185104
OK,88,22,714,88,2014-10-02T11:55:00,6,28246404,185104
OK,133,14,714,133,2014-10-02T12:00:00,1,28246841,185104
OK,77,25,714,77,2014-10-02T12:05:00,1,28247289,185104
OK,77,25,714,77,2014-10-02T12:10:00,0,28247736,185104
OK,151,12,714,151,2014-10-02T12:15:00,8,28248166,185104
OK,151,12,714,151,2014-10-02T12:20:00,5,28248615,185104
OK,118,16,714,118,2014-10-02T12:25:00,9,28249062,185104
OK,103,18,714,103,2014-10-02T12:30:00,2,28249490,185104
OK,100,19,714,100,2014-10-02T12:35:00,6,28249934,185104
OK,128,15,714,128,2014-10-02T12:40:00,2,28250318,185104
OK,151,12,714,151,2014-10-02T12:45:00,12,28251082,185104
OK,78,24,714,78,2014-10-02T13:20:00,7,28251611,185104
OK,68,28,714,68,2014-10-02T13:30:00,3,28252076,185104
OK,68,28,714,68,2014-10-02T13:35:00,1,28252213,185104
OK,68,28,714,68,2014-10-02T13:40:00,0,28252660,185104
OK,156,12,714,156,2014-10-02T13:50:00,5,28253519,185104
OK,68,28,714,68,2014-10-02T13:55:00,6,28253968,185104
OK,82,23,714,82,2014-10-02T14:10:00,3,28254699,185104
OK,58,33,714,58,2014-10-02T14:15:00,1,28254822,185104
OK,97,20,714,97,2014-10-02T14:20:00,1,28255271,185104
OK,97,20,714,97,2014-10-02T14:25:00,0,28255720,185104
OK,51,38,714,51,2014-10-02T14:30:00,7,28256148,185104
OK,51,38,714,51,2014-10-02T14:35:00,3,28256597,185104
OK,84,23,714,84,2014-10-02T14:40:00,4,28257025,185104
OK,120,16,714,120,2014-10-02T14:45:00,7,28257474,185104
OK,85,22,714,85,2014-10-02T14:50:00,6,28257915,185104
OK,74,26,714,74,2014-10-02T14:55:00,2,28258363,185104
OK,108,18,714,108,2014-10-02T15:00:00,6,28258796,185104
OK,125,15,714,125,2014-10-02T15:05:00,8,28259242,185104
OK,135,14,714,135,2014-10-02T15:10:00,5,28259690,185104
OK,94,20,714,94,2014-10-02T15:15:00,4,28260138,185104
OK,94,20,714,94,2014-10-02T15:20:00,3,28260571,185104
OK,130,14,714,130,2014-10-02T15:25:00,3,28261018,185104
OK,112,17,714,112,2014-10-02T15:35:00,10,28261823,185104
OK,131,14,714,131,2014-10-02T15:40:00,7,28262272,185104
OK,134,14,714,134,2014-10-02T15:45:00,3,28262719,185104
OK,134,14,714,134,2014-10-02T15:50:00,0,28263165,185104
OK,134,14,714,134,2014-10-02T15:55:00,0,28263603,185104
OK,83,23,714,83,2014-10-02T16:05:00,8,28264446,185104
OK,59,33,714,59,2014-10-02T16:10:00,6,28264895,185104
OK,43,45,714,43,2014-10-02T16:15:00,2,28265333,185104
OK,141,13,714,141,2014-10-02T16:25:00,2,28266169,185104
OK,58,33,714,58,2014-10-02T16:30:00,2,28266618,185104
OK,58,33,714,58,2014-10-02T16:35:00,2,28267390,185104
OK,51,38,714,51,2014-10-02T16:45:00,2,28267839,185104
OK,55,35,714,55,2014-10-02T16:50:00,0,28268288,185104
OK,138,14,714,138,2014-10-02T16:55:00,3,28268730,185104
OK,45,43,714,45,2014-10-02T17:00:00,1,28269179,185104
OK,139,14,714,139,2014-10-02T17:05:00,2,28269628,185104
OK,234,8,714,234,2014-10-02T17:10:00,1,28270063,185104
OK,234,8,714,234,2014-10-02T17:15:00,0,28270512,185104
OK,67,29,714,67,2014-10-02T17:20:00,1,28270946,185104